This is the latest recevied weather packets stored in our database for station/object N3AVN. If no packets are shown the sender has not sent any weather packets the latest 10 day(s).
| Time | Temp. | Humidity | Pressure | Rain* | Wind** | Luminosity | Snow |
|---|---|---|---|---|---|---|---|
| 1777775849 | 7.22° C | 64% | 1010.6 hPa | 0 mm | - | 0 W/m² | - |
| 1777775546 | 7.22° C | 64% | 1010.5 hPa | 0 mm | - | 0 W/m² | - |
| 1777775243 | 7.22° C | 63% | 1010.6 hPa | 0 mm | - | 0 W/m² | - |
| 1777774942 | 7.78° C | 61% | 1010.4 hPa | 0 mm | - | 0 W/m² | - |
| 1777774640 | 7.78° C | 61% | 1010.4 hPa | 0 mm | - | 0 W/m² | - |
| 1777774335 | 7.78° C | 61% | 1010.3 hPa | 0 mm | - | 0 W/m² | - |
| 1777774033 | 7.78° C | 61% | 1010.4 hPa | 0 mm | - | 0 W/m² | - |
| 1777773731 | 7.78° C | 63% | 1010.4 hPa | 0 mm | - | 0 W/m² | - |
| 1777773427 | 7.22° C | 64% | 1010.3 hPa | 0 mm | - | 0 W/m² | - |
| 1777773119 | 7.22° C | 64% | 1010.5 hPa | 0 mm | - | 0 W/m² | - |
| 1777772815 | 7.22° C | 64% | 1010.4 hPa | 0 mm | - | 0 W/m² | - |
| 1777772513 | 7.78° C | 63% | 1010.2 hPa | 0 mm | - | 0 W/m² | - |
| 1777772210 | 7.78° C | 64% | 1010.4 hPa | 0 mm | - | 0 W/m² | - |
| 1777771908 | 7.78° C | 63% | 1010.2 hPa | 0 mm | - | 0 W/m² | - |
| 1777771604 | 7.78° C | 62% | 1010.2 hPa | 0 mm | - | 0 W/m² | - |
| 1777771301 | 8.33° C | 61% | 1010.1 hPa | 0 mm | - | 0 W/m² | - |
| 1777770998 | 8.89° C | 62% | 1010.2 hPa | 0 mm | - | 0 W/m² | - |
| 1777770695 | 8.89° C | 60% | 1010.1 hPa | 0 mm | - | 0 W/m² | - |
| 1777770391 | 8.89° C | 60% | 1010.2 hPa | 0 mm | - | 0 W/m² | - |
| 1777770089 | 9.44° C | 57% | 1010.2 hPa | 0 mm | - | 0 W/m² | - |
| 1777769786 | 9.44° C | 57% | 1010.4 hPa | 0 mm | - | 0 W/m² | - |
| 1777769483 | 10° C | 55% | 1010.2 hPa | 0 mm | - | 0 W/m² | - |
| 1777769179 | 10° C | 55% | 1009.9 hPa | 0 mm | - | 0 W/m² | - |
| 1777768878 | 10° C | 56% | 1010 hPa | 0 mm | - | 0 W/m² | - |
| 1777768574 | 10° C | 50% | 1010 hPa | 0 mm | - | 0 W/m² | - |
* Rain latest hour (hover to see other rain measurements)
** Current wind speed in m/s (hover to see current wind gust speed)